Flag for United Kingdom Weather past 2 weeks in Cheltenham, England, United Kingdom

Now
40 °F

Chilly.


Feels Like: 30 °F
Forecast: 40 / 52 °F
Wind: 18 mph from West

Location: Little Rissington

Current Time: Mar 30, 2015 at 7:49:33 AM

Latest Report: Mar 30, 2015 at 7:00 AM


Visibility: 12 mi

Pressure: 29.74 "Hg

Humidity: 78%

Dew point: 33 °F

Location of CheltenhamLocation

Historic Weather in Cheltenham — Graph

°F

Cheltenham temperature yesterday

Maximum temperature yesterday: 51 °F (at 2:00 PM)
Minimum temperature yesterday: 44 °F (at 7:00 PM)
Average temperature yesterday: 47 °F

Past Weeks' High & Low Weather Summary

 TemperatureHumidityPressure
High54 °F (Mar 20, 4:00 PM)100% (Mar 15, 6:00 AM)30.56 "Hg (Mar 15, 6:00 AM)
Low28 °F (Mar 23, 6:00 AM)50% (Mar 26, 4:00 PM)29.32 "Hg (Mar 29, 12:00 PM)
Average42 °F86%30.10 "Hg
* Reported Mar 15 5:00 AM — Mar 30 6:00 AM, Cheltenham, Weather by CustomWeather, © 2015

Note: Actual official high and low records may vary slightly from our data, if they occured in-between our weather recording intervals... More about our weather records

Advertising

Cheltenham weather history for previous 24 hours

 ConditionsComfort  
Time TempWeatherWind HumidityBarometerVisibility
6:00 AM
Mon, Mar 30
40 °FChilly.23 mph76%29.70 "Hg14 mi
5:00 AM40 °FChilly.18 mph82%29.68 "Hg12 mi
4:00 AM40 °FChilly.21 mph77%29.64 "Hg14 mi
3:00 AM41 °FQuite cool.22 mph77%29.63 "Hg12 mi
2:00 AM41 °FQuite cool.21 mph78%29.60 "Hg12 mi
1:00 AM42 °FQuite cool.16 mph76%29.58 "Hg13 mi
12:00 AM43 °FQuite cool.15 mph74%29.56 "Hg19 mi
11:00 PM
Sun, Mar 29
44 °FQuite cool.15 mph76%29.54 "Hg19 mi
9:00 PM45 °FCool.21 mph76%29.50 "Hg22 mi
8:00 PM46 °FCool.20 mph77%29.47 "Hg22 mi
7:00 PM44 °FQuite cool.21 mph89%29.47 "Hg1 mi
6:00 PM47 °FCool.28 mph80%29.44 "Hg12 mi
5:00 PM49 °FCool.31 mph76%29.41 "Hg25 mi
4:00 PM50 °FCool.32 mph70%29.38 "Hg28 mi
3:00 PM49 °FCool.33 mph90%29.35 "Hg1 mi
2:00 PM51 °FCool.29 mph94%29.32 "Hg9 mi
1:00 PM51 °FCool.31 mph94%29.32 "Hg3 mi
12:00 PM50 °FCool.32 mph97%29.32 "Hg4 mi
11:00 AM50 °FCool.31 mph96%29.35 "Hg6 mi
10:00 AM50 °FCool.30 mph96%29.41 "Hg10 mi
9:00 AM48 °FCool.24 mph100%29.44 "Hg7 mi
8:00 AM45 °FQuite cool.17 mph100%29.50 "Hg3 mi
7:00 AM45 °FCool.15 mph94%29.56 "Hg6 mi
Weather by CustomWeather, © 2015

See weather overviewHow to use our weather pages